Location: Mahannah Oil Field
(37.4664°N, 96.6003°W)
Time: 01:15:29
(UTC+00:00)

Vanguard 3 - Pass Details

Date: 29 January 2021
Orbit: 508 x 3262 km, 33.4° (Epoch: 03 March)

Event Time Altitude Azimuth Distance (km) Brightness Sun altitude
Exits shadow 10:53:05 64° 198° (SSW) 1,339 8.0 -31.6°
Maximum altitude 10:53:28 65° 182° (S) 1,357 8.1 -31.6°
Drops below altitude 10° 11:04:21 10° 104° (ESE) 4,445 11.8 -29.4°
Sets 11:08:58 0° 102° (ESE) 5,901 12.7 -28.5°
